250  
ASUS41 KALY 231710  
RWRALY  
 
NEW YORK STATE HOURLY WEATHER ROUNDUP  
NATIONAL WEATHER SERVICE ALBANY NY  
1200 PM EST SAT JAN 23 2021  
 
NOTE: "FAIR" INDICATES FEW OR NO CLOUDS BELOW 12,000 FEET WITH NO  
SIGNIFICANT WEATHER AND/OR NO S TO VISIBILITY
.  
 
NYZ032-033-038>043-046>054-057>066-NYZ062>081-082-084-231800-  
EAST  
 
 
CITY SKY/WX TMP DP RH WIND PRES REMARKS
 
ALBANY MOSUNNY 18 5 57 W20G33 30.05F WCI 2  
GLENS FALLS SUNNY 19 1 45 N14 30.02F WCI 6  
POUGHKEEPSIE MOSUNNY 30 7 37 NW15G23 30.02F WCI 19  
NEWBURGH PTSUNNY 27 10 50 NW18G30 30.03S WCI 13  
MONTGOMERY CLOUDY 27 8 44 NW23G29 30.03S WCI 12  
WHITE PLAINS PTSUNNY 29 9 43 NW23G36 29.99F WCI 15  
ISLIP MOSUNNY 31 10 41 NW24G38 29.98F WCI 17  
NEW YORK CITY PTSUNNY 32 9 38 NW22G33 30.04F WCI 19  
CENTRAL PARK CLOUDY 31 7 36 W13G25 30.06F WCI 21  

 
 
NYZ005>009-017-018-044>046-055-056-231800-  
CENTRAL  
 
 
CITY SKY/WX TMP DP RH WIND PRES REMARKS
 
FULTON LGT SNOW 16 8 71 NW10 30.18F WCI 4  
SYRACUSE PTSUNNY 18 9 68 NW14 30.18S WCI 4  
ROME MOSUNNY 16 6 65 W20 30.15S WCI -1  
ELMIRA CLOUDY 23 7 50 VRB7G21 30.16S WCI 15  
BINGHAMTON LGT SNOW 17 10 74 NW17G26 30.04F WCI 1  
MONTICELLO FLURRIES 20 8 60 NW18G31 29.99F WCI 5  

 
 
NYZ026>034-041>043-087-231800-  
NORTH  
 
 
CITY SKY/WX TMP DP RH WIND PRES REMARKS
 
WATERTOWN PTSUNNY 11 1 64 W10 30.20S WCI -3  
FORT DRUM NOT AVBL  
OGDENSBURG FAIR 9 -2 61 W10G17 30.15S WCI -6  
MASSENA SUNNY 6 -6 57 W15 30.16F WCI -12  
SARANAC LAKE CLOUDY 5 -3 69 SW13G18 29.94F WCI -12  
PLATTSBURGH SUNNY 14 -1 51 W14 30.04F WCI -1  

 
 
NYZ001>004-010>016-019>021-085-231800-  
WEST  
 
 
CITY SKY/WX TMP DP RH WIND PRES REMARKS
 
NIAGARA FALLS CLOUDY 21 11 65 NW15 30.25F WCI 8  
BUFFALO FLURRIES 21 10 62 W15 30.24F WCI 8  
DUNKIRK FLURRIES 24 13 62 NW13G23 30.28R WCI 12  
JAMESTOWN FLURRIES 19 11 70 NW18G28 30.19R WCI 4  
WELLSVILLE LGT SNOW 16 9 74 MISG 30.11F  
ROCHESTER LGT SNOW 19 11 70 NW17 30.21F WCI 4  
PENN YAN CLOUDY 20 7 57 NW17 30.16F WCI 5  

 
 
KEY  
WCI = WIND CHILL INDEX  
VSB = VISIBILITY  
HX = HEAT INDEX  

 
 
 
CLICK HERE TO GO TO PREVIOUS BULLETINS.

The Nexlab NY Page
The Nexlab VT Page
The Nexlab MA Page
The Nexlab CT Page Main Text Page